Hourly Data Report for September 23, 2017

All times are specified in Local Standard Time (LST). Add 1 hour to adjust for Daylight Saving Time where and when it is observed.

GJOA HAVEN A
NUNAVUT

68°38'08.000" N
95°51'01.000" W
46.90 m
2302337
71597
YHK

Download Data

Hourly Data (September 2017)
Hourly Data Report for September 23, 2017
Temp Definition
°C
Dew Point Temp Definition
°C
Rel Hum Definition
%
Wind Dir Definition
10's deg

Wind Spd Definition
km/h
Visibility Definition
km
Stn Press Definition
kPa
Hmdx Definition


Wind Chill Definition


Weather Definition


TIME
00:00 Legend Double Dagger -4.7 -4.8 99 31 13 6.4 101.85   -10 Snow
01:00 Legend Double Dagger -4.9 -5.0 99 30 15 16.1 101.87   -10 Snow
02:00 Legend Double Dagger -5.0 -5.1 99 29 13 4.8 101.87   -10 Fog
03:00 Legend Double Dagger -5.1 -5.4 98 29 15 2.0 101.89   -11 Snow
04:00 Legend Double Dagger -5.2 -5.5 98 31 17 16.1 101.88   -11 LegendNANA
05:00 Legend Double Dagger -5.1 -5.3 98 33 17 1.2 101.87   -11 Snow
06:00 Legend Double Dagger -5.4 -5.7 98 33 15 16.1 101.86   -11 LegendNANA
07:00 Legend Double Dagger -4.9 -5.2 98 30 17 11.3 101.86   -11 LegendNANA
08:00 Legend Double Dagger -5.0 -5.3 98 31 13 16.1 101.86   -10 LegendNANA
09:00 Legend Double Dagger -4.8 -5.0 98 32 15 16.1 101.87   -10 LegendNANA
10:00 Legend Double Dagger -4.5 -4.6 99 28 11 16.1 101.85   -9 LegendNANA
11:00 Legend Double Dagger -4.3 -4.4 99 30 13 16.1 101.84   -9 LegendNANA
12:00 Legend Double Dagger -4.4 -4.5 99 28 11 16.1 101.86   -9 LegendNANA
13:00 Legend Double Dagger -4.3 -4.4 99 32 13 16.1 101.86   -9 LegendNANA
14:00 Legend Double Dagger -4.4 -4.6 98 31 17 16.1 101.85   -10 LegendNANA
15:00 Legend Double Dagger -4.3 -4.4 99 34 13 16.1 101.83   -9 LegendNANA
16:00 Legend Double Dagger -4.4 -4.7 98 31 15 16.1 101.81   -10 LegendNANA
17:00 Legend Double Dagger -4.5 -4.8 98 34 11 16.1 101.80   -9 LegendNANA
18:00 Legend Double Dagger -4.7 -5.0 98 34 13 16.1 101.79   -10 LegendNANA
19:00 Legend Double Dagger -4.4 -4.8 97 33 9 16.1 101.79   -8 LegendNANA
20:00 Legend Double Dagger -4.3 -4.8 96 35 15 16.1 101.76   -10 LegendNANA
21:00 Legend Double Dagger -4.5 -4.8 98 36 11 16.1 101.76   -9 LegendNANA
22:00 Legend Double Dagger -4.2 -4.8 96 34 11 16.1 101.76   -9 LegendNANA
23:00 Legend Double Dagger -4.2 -4.6 97 34 13 16.1 101.76   -9 LegendNANA

Notes on Data Quality.

Legend

  • E = Estimated
  • M = Missing
  • NA = Not Available
  • ‡ = Partner data that is not subject to review by the National Climate Archives
Date modified: